Location: Unspecified
(41.2012°N, 0.0000°E)
Time: 16:21:42
(UTC+00:00)

AO-91 - Visible Passes

Search period start: 04 April 2026 00:00
Search period end: 14 April 2026 00:00
Orbit: 427 x 638 km, 97.5° (Epoch: 29 March)

Date Brightness Start Highest point End Pass type
(mag) Time Alt. Az. Time Alt. Az. Time Alt. Az.
4 Apr ? 21:45:32 10° N 21:46:36 16° NNW 21:46:36 16° NNW visible
5 Apr ? 21:35:32 10° N 21:36:44 18° NNW 21:36:44 18° NNW visible
6 Apr ? 21:25:34 10° N 21:26:50 19° N 21:26:50 19° N visible
7 Apr ? 21:15:38 10° N 21:16:54 20° N 21:16:54 20° N visible
8 Apr ? 21:05:43 10° N 21:06:59 20° N 21:06:59 20° N visible
9 Apr ? 20:55:50 10° NNE 20:57:01 19° NNE 20:57:01 19° NNE visible
10 Apr ? 20:45:59 10° NNE 20:47:02 17° NNE 20:47:02 17° NNE visible
11 Apr ? 20:36:11 10° NNE 20:37:02 16° NE 20:37:02 16° NE visible
11 Apr ? 22:11:43 10° NW 22:12:22 12° NW 22:12:22 12° NW visible
12 Apr ? 20:26:25 10° NE 20:27:01 13° NE 20:27:01 13° NE visible
12 Apr ? 22:01:15 10° NNW 22:02:20 14° NW 22:02:20 14° NW visible
13 Apr ? 20:16:45 10° NE 20:16:58 11° NE 20:16:58 11° NE visible
13 Apr ? 21:50:56 10° NNW 21:52:18 17° NW 21:52:18 17° NW visible
